User: anonymous   Login
Location: Knowlton
(51.2333°N, 1.2667°E)
Time: 23:49:36
(UTC+00:00)
Language:

Meteor 1-5 Rocket - Orbit

View from above orbital plane
View from above orbital plane
View from above satellite
View from above satellite

Ground track
Ground track

The orbit data is extracted from the following two-line orbital elements,

1 04420U 70047B   21172.59479066 -.00000131  00000-0 -75800-4 0  9998
2 04420  81.2295 339.6680 0087847  43.4485 317.3565 14.12097433624899
Epoch (UTC): 21 June 2021 14:16:29
Eccentricity: 0.0087847
inclination: 81.2295°
perigee height: 788 km
apogee height: 916 km
right ascension of ascending node: 339.6680°
argument of perigee: 43.4485°
revolutions per day: 14.12097433
mean anomaly at epoch: 317.3565°
orbit number at epoch: 62489

The dashed part of the orbit path shows where the satellite is in the earth's shadow,  

DLR